Flag for U.S.A. Weather past 2 weeks in Vallejo, California, U.S.A.

Now
71 °F

Sunny.


Feels Like: 75 °F
Forecast: 61 / 85 °F
Wind: 9 mph from Southwest

Location: Napa County Airport

Current Time: Jul 1, 2015 at 10:41:14 AM

Latest Report: Jul 1, 2015 at 9:54 AM


Visibility: 10 mi

Pressure: 29.85 "Hg

Humidity: 63%

Dew point: 58 °F

Location of VallejoLocation

Historic Weather in Vallejo — Graph

°F

Vallejo temperature yesterday

Maximum temperature yesterday: 87 °F (at 1:54 PM)
Minimum temperature yesterday: 54 °F (at 4:54 AM)
Average temperature yesterday: 71 °F

Past Weeks' High & Low Weather Summary

 TemperatureHumidityPressure
High87 °F (Jun 30, 1:54 PM)97% (Jun 22, 5:54 AM)30.03 "Hg (Jun 22, 5:54 AM)
Low47 °F (Jun 22, 5:54 AM)33% (Jun 30, 1:54 PM)29.75 "Hg (Jun 30, 4:54 PM)
Average64 °F71%29.90 "Hg
* Reported Jun 16 8:54 AM — Jul 1 8:54 AM, Vallejo, Weather by CustomWeather, © 2015

Note: Actual official high and low records may vary slightly from our data, if they occured in-between our weather recording intervals... More about our weather records

Advertising

Vallejo weather history for previous 24 hours

 ConditionsComfort  
Time TempWeatherWind HumidityBarometerVisibility
8:54 AM
Wed, Jul 1
66 °FSunny.6 mph70%29.84 "Hg10 mi
7:54 AM62 °FSunny.No wind80%29.83 "Hg10 mi
6:54 AM59 °FSunny.No wind93%29.81 "Hg10 mi
5:54 AM58 °FClear.5 mph90%29.79 "Hg10 mi
4:54 AM56 °FClear.3 mph97%29.78 "Hg10 mi
3:54 AM60 °FClear.No wind90%29.79 "Hg10 mi
2:54 AM60 °FClear.5 mph86%29.80 "Hg10 mi
1:54 AM62 °FClear.No wind83%29.81 "Hg10 mi
12:54 AM62 °FClear.10 mph86%29.81 "Hg10 mi
11:54 PM
Tue, Jun 30
63 °FClear.8 mph84%29.82 "Hg10 mi
10:54 PM67 °FClear.3 mph76%29.81 "Hg10 mi
9:54 PM67 °FClear.5 mph76%29.79 "Hg10 mi
8:54 PM71 °FSunny.6 mph66%29.78 "Hg10 mi
7:54 PM78 °FSunny.10 mph54%29.77 "Hg10 mi
6:54 PM82 °FSunny.9 mph48%29.75 "Hg10 mi
5:54 PM84 °FSunny.12 mph45%29.76 "Hg10 mi
4:54 PM86 °FSunny.10 mph40%29.75 "Hg10 mi
3:54 PM87 °FSunny.9 mph36%29.77 "Hg10 mi
2:54 PM87 °FSunny.8 mph37%29.79 "Hg10 mi
1:54 PM87 °FSunny.8 mph33%29.81 "Hg10 mi
12:54 PM82 °FSunny.7 mph43%29.83 "Hg10 mi
11:54 AM77 °FSunny.7 mph54%29.85 "Hg10 mi
10:54 AM73 °FSunny.6 mph59%29.86 "Hg10 mi
Weather by CustomWeather, © 2015

See weather overviewHow to use our weather pages